Time,TemperatureF,DewpointF,PressureIn,WindDirection,WindDirectionDegrees,WindSpeedMPH,WindSpeedGustMPH,Humidity,HourlyPrecipIn,Conditions,Clouds,dailyrainin,SoftwareType,DateUTC
2013-01-24 00:00:00,55.4,54.3,30.29,North,32767,0.0,0.0,96,0.00,,,0.00,Wunderground v.1.15,2013-01-24 06:00:00,
2013-01-24 00:05:00,55.4,54.3,30.29,North,32767,0.0,0.0,96,0.00,,,0.00,Wunderground v.1.15,2013-01-24 06:05:00,
2013-01-24 00:15:00,55.0,53.9,30.29,North,32767,0.0,0.0,96,0.00,,,0.00,Wunderground v.1.15,2013-01-24 06:15:00,
2013-01-24 00:20:00,54.8,53.7,30.30,North,32767,0.0,0.0,96,0.00,,,0.00,Wunderground v.1.15,2013-01-24 06:20:00,
2013-01-24 00:25:00,54.6,53.8,30.30,North,32767,0.0,0.0,97,0.00,,,0.00,Wunderground v.1.15,2013-01-24 06:25:00,
2013-01-24 00:35:00,54.8,54.0,30.30,North,32767,0.0,0.0,97,0.00,,,0.00,Wunderground v.1.15,2013-01-24 06:35:00,
2013-01-24 00:40:00,54.7,53.9,30.30,North,32767,0.0,0.0,97,0.00,,,0.00,Wunderground v.1.15,2013-01-24 06:40:00,
2013-01-24 00:45:00,54.5,53.7,30.30,North,32767,0.0,0.0,97,0.00,,,0.00,Wunderground v.1.15,2013-01-24 06:45:00,
2013-01-24 00:50:00,54.4,53.6,30.29,North,32767,0.0,0.0,97,0.00,,,0.00,Wunderground v.1.15,2013-01-24 06:50:00,
2013-01-24 00:55:00,54.3,53.5,30.29,North,32767,0.0,0.0,97,0.00,,,0.00,Wunderground v.1.15,2013-01-24 06:55:00,
2013-01-24 01:00:00,54.2,53.4,30.29,North,32767,0.0,0.0,97,0.00,,,0.00,Wunderground v.1.15,2013-01-24 07:00:00,
2013-01-24 01:05:00,53.9,53.1,30.29,North,32767,0.0,0.0,97,0.00,,,0.00,Wunderground v.1.15,2013-01-24 07:05:00,
2013-01-24 01:10:00,53.7,52.9,30.29,North,32767,0.0,0.0,97,0.00,,,0.00,Wunderground v.1.15,2013-01-24 07:10:00,
2013-01-24 01:15:00,53.5,52.7,30.29,North,32767,0.0,0.0,97,0.00,,,0.00,Wunderground v.1.15,2013-01-24 07:15:00,
2013-01-24 01:20:00,53.3,52.5,30.30,North,32767,0.0,0.0,97,0.00,,,0.00,Wunderground v.1.15,2013-01-24 07:20:00,
2013-01-24 01:25:00,53.1,52.3,30.30,North,32767,0.0,0.0,97,0.00,,,0.00,Wunderground v.1.15,2013-01-24 07:25:00,
2013-01-24 01:30:00,52.9,52.4,30.30,North,32767,0.0,0.0,98,0.00,,,0.00,Wunderground v.1.15,2013-01-24 07:30:00,
2013-01-24 01:35:00,52.8,52.3,30.29,North,32767,0.0,0.0,98,0.00,,,0.00,Wunderground v.1.15,2013-01-24 07:35:00,
2013-01-24 01:45:00,52.5,52.0,30.29,North,32767,0.0,0.0,98,0.00,,,0.00,Wunderground v.1.15,2013-01-24 07:45:00,
2013-01-24 01:50:00,52.4,51.9,30.29,North,32767,0.0,0.0,98,0.00,,,0.00,Wunderground v.1.15,2013-01-24 07:50:00,
2013-01-24 01:55:00,52.3,51.8,30.29,North,32767,0.0,0.0,98,0.00,,,0.00,Wunderground v.1.15,2013-01-24 07:55:00,
2013-01-24 02:00:00,52.3,51.8,30.29,North,32767,0.0,0.0,98,0.00,,,0.00,Wunderground v.1.15,2013-01-24 08:00:00,
2013-01-24 02:05:00,52.2,51.7,30.29,North,32767,0.0,0.0,98,0.00,,,0.00,Wunderground v.1.15,2013-01-24 08:05:00,
2013-01-24 02:10:00,52.1,51.6,30.29,North,32767,0.0,0.0,98,0.00,,,0.00,Wunderground v.1.15,2013-01-24 08:10:00,
2013-01-24 02:15:00,52.1,51.6,30.29,North,32767,0.0,0.0,98,0.00,,,0.00,Wunderground v.1.15,2013-01-24 08:15:00,
2013-01-24 02:25:00,52.3,51.8,30.28,North,32767,0.0,0.0,98,0.00,,,0.00,Wunderground v.1.15,2013-01-24 08:25:00,
2013-01-24 02:30:00,52.2,51.7,30.28,North,32767,0.0,0.0,98,0.00,,,0.00,Wunderground v.1.15,2013-01-24 08:30:00,
2013-01-24 02:35:00,52.1,51.6,30.28,North,32767,0.0,0.0,98,0.00,,,0.00,Wunderground v.1.15,2013-01-24 08:35:00,
2013-01-24 02:40:00,52.0,51.5,30.28,North,32767,0.0,0.0,98,0.00,,,0.00,Wunderground v.1.15,2013-01-24 08:40:00,
2013-01-24 02:45:00,51.8,51.3,30.28,North,32767,0.0,0.0,98,0.00,,,0.00,Wunderground v.1.15,2013-01-24 08:45:00,
2013-01-24 02:50:00,51.8,51.5,30.28,North,32767,0.0,0.0,99,0.00,,,0.00,Wunderground v.1.15,2013-01-24 08:50:00,
2013-01-24 02:55:00,51.7,51.2,30.28,North,32767,0.0,0.0,98,0.00,,,0.00,Wunderground v.1.15,2013-01-24 08:55:00,
2013-01-24 03:00:00,51.6,51.1,30.28,North,32767,0.0,0.0,98,0.00,,,0.00,Wunderground v.1.15,2013-01-24 09:00:00,
2013-01-24 03:05:00,51.5,51.0,30.28,North,32767,0.0,0.0,98,0.00,,,0.00,Wunderground v.1.15,2013-01-24 09:05:00,
2013-01-24 03:10:00,51.5,51.0,30.28,North,32767,0.0,0.0,98,0.00,,,0.00,Wunderground v.1.15,2013-01-24 09:10:00,
2013-01-24 03:15:00,51.4,50.9,30.28,North,32767,0.0,0.0,98,0.00,,,0.00,Wunderground v.1.15,2013-01-24 09:15:00,
2013-01-24 03:20:00,51.4,50.9,30.28,North,32767,0.0,0.0,98,0.00,,,0.00,Wunderground v.1.15,2013-01-24 09:20:00,
2013-01-24 03:25:00,51.3,51.0,30.28,North,32767,0.0,0.0,99,0.00,,,0.00,Wunderground v.1.15,2013-01-24 09:25:00,
2013-01-24 03:30:00,51.2,50.9,30.28,North,32767,0.0,0.0,99,0.00,,,0.00,Wunderground v.1.15,2013-01-24 09:30:00,
2013-01-24 03:35:00,51.1,50.8,30.28,North,32767,0.0,0.0,99,0.00,,,0.00,Wunderground v.1.15,2013-01-24 09:35:00,
2013-01-24 03:40:00,51.0,50.5,30.28,North,32767,0.0,0.0,98,0.00,,,0.00,Wunderground v.1.15,2013-01-24 09:40:00,
2013-01-24 03:45:00,50.9,50.6,30.28,North,32767,0.0,0.0,99,0.00,,,0.00,Wunderground v.1.15,2013-01-24 09:45:00,
2013-01-24 03:55:00,50.6,50.3,30.28,North,32767,0.0,0.0,99,0.00,,,0.00,Wunderground v.1.15,2013-01-24 09:55:00,
2013-01-24 04:00:00,50.4,50.1,30.28,North,32767,0.0,0.0,99,0.00,,,0.00,Wunderground v.1.15,2013-01-24 10:00:00,
2013-01-24 04:05:00,50.3,50.0,30.28,North,32767,0.0,0.0,99,0.00,,,0.00,Wunderground v.1.15,2013-01-24 10:05:00,
2013-01-24 04:10:00,50.1,49.8,30.28,North,32767,0.0,0.0,99,0.00,,,0.00,Wunderground v.1.15,2013-01-24 10:10:00,
2013-01-24 04:15:00,50.0,49.7,30.28,North,32767,0.0,0.0,99,0.00,,,0.00,Wunderground v.1.15,2013-01-24 10:15:00,
2013-01-24 04:20:00,49.9,49.6,30.29,North,32767,0.0,0.0,99,0.00,,,0.00,Wunderground v.1.15,2013-01-24 10:20:00,
2013-01-24 04:25:00,49.7,49.4,30.29,North,32767,0.0,0.0,99,0.00,,,0.00,Wunderground v.1.15,2013-01-24 10:25:00,
2013-01-24 04:35:00,49.5,49.2,30.29,North,32767,0.0,0.0,99,0.00,,,0.00,Wunderground v.1.15,2013-01-24 10:35:00,
2013-01-24 04:40:00,49.4,49.1,30.29,North,32767,0.0,0.0,99,0.00,,,0.00,Wunderground v.1.15,2013-01-24 10:40:00,
2013-01-24 04:45:00,49.4,49.1,30.29,North,32767,0.0,0.0,99,0.00,,,0.00,Wunderground v.1.15,2013-01-24 10:45:00,
2013-01-24 04:50:00,49.4,49.1,30.29,North,32767,0.0,0.0,99,0.00,,,0.00,Wunderground v.1.15,2013-01-24 10:50:00,
2013-01-24 05:00:00,49.1,48.8,30.29,North,32767,0.0,0.0,99,0.00,,,0.00,Wunderground v.1.15,2013-01-24 11:00:00,
2013-01-24 05:05:00,49.0,48.7,30.29,North,32767,0.0,0.0,99,0.00,,,0.00,Wunderground v.1.15,2013-01-24 11:05:00,
2013-01-24 05:10:00,49.0,48.7,30.29,North,32767,0.0,0.0,99,0.00,,,0.00,Wunderground v.1.15,2013-01-24 11:10:00,
2013-01-24 05:15:00,49.0,48.7,30.29,North,32767,0.0,0.0,99,0.00,,,0.00,Wunderground v.1.15,2013-01-24 11:15:00,
2013-01-24 05:20:00,49.1,48.8,30.29,North,32767,0.0,0.0,99,0.00,,,0.00,Wunderground v.1.15,2013-01-24 11:20:00,
2013-01-24 05:25:00,49.1,48.8,30.29,North,32767,0.0,0.0,99,0.00,,,0.00,Wunderground v.1.15,2013-01-24 11:25:00,
2013-01-24 05:30:00,49.2,48.9,30.29,North,32767,0.0,0.0,99,0.00,,,0.00,Wunderground v.1.15,2013-01-24 11:30:00,
2013-01-24 05:40:00,49.2,48.9,30.29,North,32767,0.0,0.0,99,0.00,,,0.00,Wunderground v.1.15,2013-01-24 11:40:00,
2013-01-24 05:45:00,49.1,48.8,30.30,North,32767,0.0,0.0,99,0.00,,,0.00,Wunderground v.1.15,2013-01-24 11:45:00,
2013-01-24 05:50:00,49.0,48.7,30.30,North,32767,0.0,0.0,99,0.00,,,0.00,Wunderground v.1.15,2013-01-24 11:50:00,
2013-01-24 05:55:00,48.9,48.6,30.31,North,32767,0.0,0.0,99,0.00,,,0.00,Wunderground v.1.15,2013-01-24 11:55:00,
2013-01-24 06:00:00,48.8,48.5,30.31,North,32767,0.0,0.0,99,0.00,,,0.00,Wunderground v.1.15,2013-01-24 12:00:00,
2013-01-24 06:05:00,48.7,48.4,30.30,North,32767,0.0,0.0,99,0.00,,,0.00,Wunderground v.1.15,2013-01-24 12:05:00,
2013-01-24 06:10:00,48.7,48.4,30.31,North,32767,0.0,0.0,99,0.00,,,0.00,Wunderground v.1.15,2013-01-24 12:10:00,
2013-01-24 06:15:00,48.6,48.3,30.31,North,32767,0.0,0.0,99,0.00,,,0.00,Wunderground v.1.15,2013-01-24 12:15:00,
2013-01-24 06:20:00,48.5,48.2,30.31,North,32767,0.0,0.0,99,0.00,,,0.00,Wunderground v.1.15,2013-01-24 12:20:00,
2013-01-24 06:25:00,48.3,48.0,30.31,North,32767,0.0,0.0,99,0.00,,,0.00,Wunderground v.1.15,2013-01-24 12:25:00,
2013-01-24 06:30:00,48.1,47.8,30.31,North,32767,0.0,0.0,99,0.00,,,0.00,Wunderground v.1.15,2013-01-24 12:30:00,
2013-01-24 06:35:00,47.9,47.6,30.31,North,32767,0.0,0.0,99,0.00,,,0.00,Wunderground v.1.15,2013-01-24 12:35:00,
2013-01-24 06:40:00,47.8,47.5,30.31,North,32767,0.0,0.0,99,0.00,,,0.00,Wunderground v.1.15,2013-01-24 12:40:00,
2013-01-24 06:50:00,47.4,47.1,30.31,North,32767,0.0,0.0,99,0.00,,,0.00,Wunderground v.1.15,2013-01-24 12:50:00,
2013-01-24 06:55:00,47.3,47.0,30.31,North,32767,0.0,0.0,99,0.00,,,0.00,Wunderground v.1.15,2013-01-24 12:55:00,
2013-01-24 07:00:00,47.2,46.9,30.31,North,32767,0.0,0.0,99,0.00,,,0.00,Wunderground v.1.15,2013-01-24 13:00:00,
2013-01-24 07:05:00,47.2,46.9,30.31,North,32767,0.0,0.0,99,0.00,,,0.00,Wunderground v.1.15,2013-01-24 13:05:00,
2013-01-24 07:10:00,47.2,46.9,30.31,North,32767,0.0,0.0,99,0.00,,,0.00,Wunderground v.1.15,2013-01-24 13:10:00,
2013-01-24 07:15:00,47.2,46.9,30.31,North,32767,0.0,0.0,99,0.00,,,0.00,Wunderground v.1.15,2013-01-24 13:15:00,
2013-01-24 07:20:00,47.4,47.1,30.32,North,32767,0.0,0.0,99,0.00,,,0.00,Wunderground v.1.15,2013-01-24 13:20:00,
2013-01-24 07:30:00,47.5,47.2,30.32,North,32767,0.0,0.0,99,0.00,,,0.00,Wunderground v.1.15,2013-01-24 13:30:00,
2013-01-24 07:35:00,47.7,47.4,30.32,North,32767,0.0,0.0,99,0.00,,,0.00,Wunderground v.1.15,2013-01-24 13:35:00,
2013-01-24 07:40:00,47.9,47.6,30.32,North,32767,0.0,0.0,99,0.00,,,0.00,Wunderground v.1.15,2013-01-24 13:40:00,
2013-01-24 07:45:00,48.2,47.9,30.32,North,32767,0.0,0.0,99,0.00,,,0.00,Wunderground v.1.15,2013-01-24 13:45:00,
2013-01-24 07:50:00,48.9,48.6,30.32,North,32767,0.0,0.0,99,0.00,,,0.00,Wunderground v.1.15,2013-01-24 13:50:00,
2013-01-24 07:55:00,49.7,49.4,30.32,North,32767,0.0,0.0,99,0.00,,,0.00,Wunderground v.1.15,2013-01-24 13:55:00,
2013-01-24 08:00:00,50.8,50.5,30.32,North,32767,0.0,0.0,99,0.00,,,0.00,Wunderground v.1.15,2013-01-24 14:00:00,
2013-01-24 08:05:00,51.9,51.6,30.32,North,32767,0.0,0.0,99,0.00,,,0.00,Wunderground v.1.15,2013-01-24 14:05:00,
2013-01-24 08:10:00,53.0,52.7,30.32,North,32767,0.0,0.0,99,0.00,,,0.00,Wunderground v.1.15,2013-01-24 14:10:00,
2013-01-24 08:15:00,54.7,54.7,30.32,North,32767,0.0,0.0,100,0.00,,,0.00,Wunderground v.1.15,2013-01-24 14:15:00,
2013-01-24 08:20:00,56.1,56.1,30.33,North,32767,0.0,0.0,100,0.00,,,0.00,Wunderground v.1.15,2013-01-24 14:20:00,
2013-01-24 08:25:00,56.9,56.9,30.33,North,32767,0.0,0.0,100,0.00,,,0.00,Wunderground v.1.15,2013-01-24 14:25:00,
2013-01-24 08:30:00,57.6,57.6,30.32,North,32767,0.0,0.0,100,0.00,,,0.00,Wunderground v.1.15,2013-01-24 14:30:00,
2013-01-24 08:35:00,58.2,58.2,30.33,North,32767,0.0,0.0,100,0.00,,,0.00,Wunderground v.1.15,2013-01-24 14:35:00,
2013-01-24 08:45:00,59.8,58.9,30.33,North,32767,0.0,0.0,97,0.00,,,0.00,Wunderground v.1.15,2013-01-24 14:45:00,
2013-01-24 08:50:00,60.3,58.9,30.33,North,32767,0.0,0.0,95,0.00,,,0.00,Wunderground v.1.15,2013-01-24 14:50:00,
2013-01-24 08:55:00,60.9,59.5,30.33,North,32767,0.0,0.0,95,0.00,,,0.00,Wunderground v.1.15,2013-01-24 14:55:00,
2013-01-24 09:00:00,61.2,59.2,30.33,North,32767,0.0,0.0,93,0.00,,,0.00,Wunderground v.1.15,2013-01-24 15:00:00,
2013-01-24 09:05:00,61.5,59.5,30.33,North,32767,0.0,0.0,93,0.00,,,0.00,Wunderground v.1.15,2013-01-24 15:05:00,
2013-01-24 09:10:00,62.0,60.0,30.33,North,32767,0.0,0.0,93,0.00,,,0.00,Wunderground v.1.15,2013-01-24 15:10:00,
2013-01-24 09:15:00,62.6,60.5,30.33,North,32767,0.0,0.0,93,0.00,,,0.00,Wunderground v.1.15,2013-01-24 15:15:00,
2013-01-24 09:20:00,63.4,61.0,30.33,North,32767,0.0,0.0,92,0.00,,,0.00,Wunderground v.1.15,2013-01-24 15:20:00,
2013-01-24 09:25:00,63.3,60.3,30.34,North,32767,0.0,0.0,90,0.00,,,0.00,Wunderground v.1.15,2013-01-24 15:25:00,
2013-01-24 09:30:00,63.4,60.7,30.34,North,32767,0.0,0.0,91,0.00,,,0.00,Wunderground v.1.15,2013-01-24 15:30:00,
2013-01-24 09:35:00,63.8,60.5,30.34,North,32767,0.0,0.0,89,0.00,,,0.00,Wunderground v.1.15,2013-01-24 15:35:00,
2013-01-24 09:40:00,63.6,60.3,30.34,North,32767,0.0,0.0,89,0.00,,,0.00,Wunderground v.1.15,2013-01-24 15:40:00,
2013-01-24 09:45:00,63.9,60.9,30.34,North,32767,0.0,0.0,90,0.00,,,0.00,Wunderground v.1.15,2013-01-24 15:45:00,
2013-01-24 09:55:00,64.3,61.0,30.34,North,32767,0.0,0.0,89,0.00,,,0.00,Wunderground v.1.15,2013-01-24 15:55:00,
2013-01-24 10:00:00,64.9,61.3,30.34,North,32767,0.0,0.0,88,0.00,,,0.00,Wunderground v.1.15,2013-01-24 16:00:00,
2013-01-24 10:05:00,65.0,60.7,30.34,North,32767,0.0,0.0,86,0.00,,,0.00,Wunderground v.1.15,2013-01-24 16:05:00,
2013-01-24 10:10:00,65.1,61.1,30.34,North,32767,0.0,0.0,87,0.00,,,0.00,Wunderground v.1.15,2013-01-24 16:10:00,
2013-01-24 10:15:00,65.3,61.3,30.34,North,32767,0.0,0.0,87,0.00,,,0.00,Wunderground v.1.15,2013-01-24 16:15:00,
2013-01-24 10:20:00,65.8,61.5,30.34,North,32767,0.0,0.0,86,0.00,,,0.00,Wunderground v.1.15,2013-01-24 16:20:00,
2013-01-24 10:25:00,66.6,61.9,30.34,North,32767,0.0,0.0,85,0.00,,,0.00,Wunderground v.1.15,2013-01-24 16:25:00,
2013-01-24 10:30:00,66.8,61.8,30.34,North,32767,0.0,0.0,84,0.00,,,0.00,Wunderground v.1.15,2013-01-24 16:30:00,
2013-01-24 10:35:00,67.0,61.3,30.34,North,32767,0.0,0.0,82,0.00,,,0.00,Wunderground v.1.15,2013-01-24 16:35:00,
2013-01-24 10:40:00,66.4,60.7,30.34,North,32767,0.0,0.0,82,0.00,,,0.00,Wunderground v.1.15,2013-01-24 16:40:00,
2013-01-24 10:45:00,66.1,61.1,30.34,North,32767,0.0,0.0,84,0.00,,,0.00,Wunderground v.1.15,2013-01-24 16:45:00,
2013-01-24 10:50:00,66.0,60.7,30.33,North,32767,0.0,0.0,83,0.00,,,0.00,Wunderground v.1.15,2013-01-24 16:50:00,
2013-01-24 10:55:00,66.2,61.2,30.33,North,32767,0.0,0.0,84,0.00,,,0.00,Wunderground v.1.15,2013-01-24 16:55:00,
2013-01-24 11:00:00,65.8,60.8,30.33,North,32767,0.0,0.0,84,0.00,,,0.00,Wunderground v.1.15,2013-01-24 17:00:00,
2013-01-24 11:05:00,65.4,60.4,30.33,North,32767,0.0,0.0,84,0.00,,,0.00,Wunderground v.1.15,2013-01-24 17:05:00,
2013-01-24 11:10:00,65.5,60.5,30.33,North,32767,0.0,0.0,84,0.00,,,0.00,Wunderground v.1.15,2013-01-24 17:10:00,
2013-01-24 11:15:00,65.7,61.1,30.33,North,32767,0.0,0.0,85,0.00,,,0.00,Wunderground v.1.15,2013-01-24 17:15:00,
2013-01-24 11:20:00,66.2,60.9,30.32,North,32767,0.0,0.0,83,0.00,,,0.00,Wunderground v.1.15,2013-01-24 17:20:00,
2013-01-24 11:25:00,66.9,61.9,30.32,North,32767,0.0,0.0,84,0.00,,,0.00,Wunderground v.1.15,2013-01-24 17:25:00,
2013-01-24 11:30:00,67.5,61.8,30.32,North,32767,0.0,0.0,82,0.00,,,0.00,Wunderground v.1.15,2013-01-24 17:30:00,
2013-01-24 11:35:00,68.1,61.7,30.32,North,32767,0.0,0.0,80,0.00,,,0.00,Wunderground v.1.15,2013-01-24 17:35:00,
2013-01-24 11:40:00,68.6,61.8,30.31,North,32767,0.0,0.0,79,0.00,,,0.00,Wunderground v.1.15,2013-01-24 17:40:00,
2013-01-24 11:45:00,68.1,61.0,30.31,North,32767,0.0,0.0,78,0.00,,,0.00,Wunderground v.1.15,2013-01-24 17:45:00,
2013-01-24 11:50:00,67.7,61.0,30.31,North,32767,0.0,0.0,79,0.00,,,0.00,Wunderground v.1.15,2013-01-24 17:50:00,
2013-01-24 11:55:00,67.8,61.0,30.31,North,32767,0.0,0.0,79,0.00,,,0.00,Wunderground v.1.15,2013-01-24 17:55:00,
2013-01-24 12:00:00,68.1,61.3,30.31,North,32767,0.0,0.0,79,0.00,,,0.00,Wunderground v.1.15,2013-01-24 18:00:00,
2013-01-24 12:05:00,68.1,61.3,30.30,North,32767,0.0,0.0,79,0.00,,,0.00,Wunderground v.1.15,2013-01-24 18:05:00,
2013-01-24 12:10:00,67.5,60.8,30.30,North,32767,0.0,0.0,79,0.00,,,0.00,Wunderground v.1.15,2013-01-24 18:10:00,
2013-01-24 12:15:00,67.4,62.1,30.30,North,32767,0.0,0.0,83,0.00,,,0.00,Wunderground v.1.15,2013-01-24 18:15:00,
2013-01-24 12:25:00,67.8,61.4,30.29,North,32767,0.0,0.0,80,0.00,,,0.00,Wunderground v.1.15,2013-01-24 18:25:00,
2013-01-24 12:30:00,68.1,62.4,30.29,North,32767,0.0,0.0,82,0.00,,,0.00,Wunderground v.1.15,2013-01-24 18:30:00,
2013-01-24 12:35:00,67.5,61.1,30.29,North,32767,0.0,0.0,80,0.00,,,0.00,Wunderground v.1.15,2013-01-24 18:35:00,
2013-01-24 12:40:00,66.7,61.0,30.28,North,32767,0.0,0.0,82,0.00,,,0.00,Wunderground v.1.15,2013-01-24 18:40:00,
2013-01-24 12:45:00,66.4,61.8,30.28,North,32767,0.0,0.0,85,0.00,,,0.00,Wunderground v.1.15,2013-01-24 18:45:00,
2013-01-24 12:50:00,66.6,61.6,30.28,North,32767,0.0,0.0,84,0.00,,,0.00,Wunderground v.1.15,2013-01-24 18:50:00,
2013-01-24 12:55:00,66.8,61.5,30.28,North,32767,0.0,0.0,83,0.00,,,0.00,Wunderground v.1.15,2013-01-24 18:55:00,
2013-01-24 13:00:00,67.1,62.1,30.28,North,32767,0.0,0.0,84,0.00,,,0.00,Wunderground v.1.15,2013-01-24 19:00:00,
2013-01-24 13:05:00,67.7,62.3,30.27,North,32767,0.0,0.0,83,0.00,,,0.00,Wunderground v.1.15,2013-01-24 19:05:00,
2013-01-24 13:10:00,68.2,62.8,30.27,North,32767,0.0,0.0,83,0.00,,,0.00,Wunderground v.1.15,2013-01-24 19:10:00,
2013-01-24 13:15:00,67.7,61.7,30.27,North,32767,0.0,0.0,81,0.00,,,0.00,Wunderground v.1.15,2013-01-24 19:15:00,
2013-01-24 13:20:00,67.3,62.0,30.27,North,32767,0.0,0.0,83,0.00,,,0.00,Wunderground v.1.15,2013-01-24 19:20:00,
2013-01-24 13:25:00,67.3,62.6,30.27,North,32767,0.0,0.0,85,0.00,,,0.00,Wunderground v.1.15,2013-01-24 19:25:00,
2013-01-24 13:30:00,67.6,62.3,30.26,North,32767,0.0,0.0,83,0.00,,,0.00,Wunderground v.1.15,2013-01-24 19:30:00,
2013-01-24 13:35:00,67.6,62.3,30.26,North,32767,0.0,0.0,83,0.00,,,0.00,Wunderground v.1.15,2013-01-24 19:35:00,
2013-01-24 13:40:00,68.0,62.3,30.26,North,32767,0.0,0.0,82,0.00,,,0.00,Wunderground v.1.15,2013-01-24 19:40:00,
2013-01-24 13:45:00,67.7,61.7,30.26,North,32767,0.0,0.0,81,0.00,,,0.00,Wunderground v.1.15,2013-01-24 19:45:00,
2013-01-24 13:50:00,67.4,62.1,30.26,North,32767,0.0,0.0,83,0.00,,,0.00,Wunderground v.1.15,2013-01-24 19:50:00,
2013-01-24 13:55:00,67.3,62.0,30.25,North,32767,0.0,0.0,83,0.00,,,0.00,Wunderground v.1.15,2013-01-24 19:55:00,
2013-01-24 14:00:00,67.6,62.6,30.25,North,32767,0.0,0.0,84,0.00,,,0.00,Wunderground v.1.15,2013-01-24 20:00:00,
2013-01-24 14:05:00,68.1,62.7,30.25,North,32767,0.0,0.0,83,0.00,,,0.00,Wunderground v.1.15,2013-01-24 20:05:00,
2013-01-24 14:10:00,68.3,62.9,30.25,North,32767,0.0,0.0,83,0.00,,,0.00,Wunderground v.1.15,2013-01-24 20:10:00,
2013-01-24 14:20:00,67.6,62.6,30.25,North,32767,0.0,0.0,84,0.00,,,0.00,Wunderground v.1.15,2013-01-24 20:20:00,
2013-01-24 14:25:00,67.4,61.7,30.25,North,32767,0.0,0.0,82,0.00,,,0.00,Wunderground v.1.15,2013-01-24 20:25:00,
2013-01-24 14:30:00,66.8,61.8,30.25,North,32767,0.0,0.0,84,0.00,,,0.00,Wunderground v.1.15,2013-01-24 20:30:00,
2013-01-24 14:35:00,67.1,62.4,30.24,North,32767,0.0,0.0,85,0.00,,,0.00,Wunderground v.1.15,2013-01-24 20:35:00,
2013-01-24 14:40:00,67.3,62.0,30.24,North,32767,0.0,0.0,83,0.00,,,0.00,Wunderground v.1.15,2013-01-24 20:40:00,
2013-01-24 14:45:00,67.2,62.5,30.24,North,32767,0.0,0.0,85,0.00,,,0.00,Wunderground v.1.15,2013-01-24 20:45:00,
2013-01-24 14:50:00,67.7,62.7,30.24,North,32767,0.0,0.0,84,0.00,,,0.00,Wunderground v.1.15,2013-01-24 20:50:00,
2013-01-24 14:55:00,67.1,62.1,30.24,North,32767,0.0,0.0,84,0.00,,,0.00,Wunderground v.1.15,2013-01-24 20:55:00,
2013-01-24 15:00:00,66.8,62.1,30.24,North,32767,0.0,0.0,85,0.00,,,0.00,Wunderground v.1.15,2013-01-24 21:00:00,
2013-01-24 15:05:00,66.5,62.2,30.24,North,32767,0.0,0.0,86,0.00,,,0.00,Wunderground v.1.15,2013-01-24 21:05:00,
2013-01-24 15:10:00,66.8,62.5,30.23,North,32767,0.0,0.0,86,0.00,,,0.00,Wunderground v.1.15,2013-01-24 21:10:00,
2013-01-24 15:15:00,66.7,62.4,30.23,North,32767,0.0,0.0,86,0.00,,,0.00,Wunderground v.1.15,2013-01-24 21:15:00,
2013-01-24 15:20:00,66.9,62.6,30.23,North,32767,0.0,0.0,86,0.00,,,0.00,Wunderground v.1.15,2013-01-24 21:20:00,
2013-01-24 15:25:00,67.0,62.7,30.23,North,32767,0.0,0.0,86,0.00,,,0.00,Wunderground v.1.15,2013-01-24 21:25:00,
2013-01-24 15:30:00,66.5,62.2,30.23,North,32767,0.0,0.0,86,0.00,,,0.00,Wunderground v.1.15,2013-01-24 21:30:00,
2013-01-24 15:35:00,66.1,62.1,30.23,North,32767,0.0,0.0,87,0.00,,,0.00,Wunderground v.1.15,2013-01-24 21:35:00,
2013-01-24 15:40:00,65.9,61.9,30.23,North,32767,0.0,0.0,87,0.00,,,0.00,Wunderground v.1.15,2013-01-24 21:40:00,
2013-01-24 15:45:00,66.0,62.0,30.23,North,32767,0.0,0.0,87,0.00,,,0.00,Wunderground v.1.15,2013-01-24 21:45:00,
2013-01-24 15:50:00,65.8,61.8,30.23,North,32767,0.0,0.0,87,0.00,,,0.00,Wunderground v.1.15,2013-01-24 21:50:00,
2013-01-24 16:00:00,64.9,61.6,30.23,North,32767,0.0,0.0,89,0.00,,,0.00,Wunderground v.1.15,2013-01-24 22:00:00,
2013-01-24 16:05:00,64.9,61.6,30.23,North,32767,0.0,0.0,89,0.00,,,0.00,Wunderground v.1.15,2013-01-24 22:05:00,
2013-01-24 16:10:00,64.9,61.6,30.23,North,32767,0.0,0.0,89,0.00,,,0.00,Wunderground v.1.15,2013-01-24 22:10:00,
2013-01-24 16:15:00,64.7,61.4,30.23,North,32767,0.0,0.0,89,0.00,,,0.00,Wunderground v.1.15,2013-01-24 22:15:00,
2013-01-24 16:20:00,64.6,61.6,30.23,North,32767,0.0,0.0,90,0.00,,,0.00,Wunderground v.1.15,2013-01-24 22:20:00,
2013-01-24 16:25:00,64.3,61.3,30.22,North,32767,0.0,0.0,90,0.00,,,0.00,Wunderground v.1.15,2013-01-24 22:25:00,
2013-01-24 16:30:00,63.6,60.9,30.22,North,32767,0.0,0.0,91,0.00,,,0.00,Wunderground v.1.15,2013-01-24 22:30:00,
2013-01-24 16:40:00,63.0,60.6,30.23,North,32767,0.0,0.0,92,0.00,,,0.00,Wunderground v.1.15,2013-01-24 22:40:00,
2013-01-24 16:45:00,62.7,60.3,30.23,North,32767,0.0,0.0,92,0.00,,,0.00,Wunderground v.1.15,2013-01-24 22:45:00,
2013-01-24 16:50:00,62.4,60.3,30.23,North,32767,0.0,0.0,93,0.00,,,0.00,Wunderground v.1.15,2013-01-24 22:50:00,
2013-01-24 16:55:00,62.1,60.1,30.23,North,32767,0.0,0.0,93,0.00,,,0.00,Wunderground v.1.15,2013-01-24 22:55:00,
2013-01-24 17:00:00,62.0,60.0,30.23,North,32767,0.0,0.0,93,0.00,,,0.00,Wunderground v.1.15,2013-01-24 23:00:00,
2013-01-24 17:05:00,61.8,59.8,30.23,North,32767,0.0,0.0,93,0.00,,,0.00,Wunderground v.1.15,2013-01-24 23:05:00,
2013-01-24 17:15:00,61.5,59.8,30.23,North,32767,0.0,0.0,94,0.00,,,0.00,Wunderground v.1.15,2013-01-24 23:15:00,
2013-01-24 17:25:00,61.2,59.5,30.23,North,32767,0.0,0.0,94,0.00,,,0.00,Wunderground v.1.15,2013-01-24 23:25:00,
2013-01-24 17:30:00,61.1,59.4,30.24,North,32767,0.0,0.0,94,0.00,,,0.00,Wunderground v.1.15,2013-01-24 23:30:00,
2013-01-24 17:35:00,61.0,59.3,30.23,North,32767,0.0,0.0,94,0.00,,,0.00,Wunderground v.1.15,2013-01-24 23:35:00,
2013-01-24 17:40:00,61.0,59.3,30.24,North,32767,0.0,0.0,94,0.00,,,0.00,Wunderground v.1.15,2013-01-24 23:40:00,
2013-01-24 17:45:00,60.9,59.2,30.24,North,32767,0.0,0.0,94,0.00,,,0.00,Wunderground v.1.15,2013-01-24 23:45:00,
2013-01-24 17:50:00,60.8,59.1,30.24,North,32767,0.0,0.0,94,0.00,,,0.00,Wunderground v.1.15,2013-01-24 23:50:00,
2013-01-24 17:55:00,60.7,59.3,30.24,North,32767,0.0,0.0,95,0.00,,,0.00,Wunderground v.1.15,2013-01-24 23:55:00,
2013-01-24 18:00:00,60.6,59.2,30.24,North,32767,0.0,0.0,95,0.00,,,0.00,Wunderground v.1.15,2013-01-25 00:00:00,
2013-01-24 18:05:00,60.5,59.1,30.25,North,32767,0.0,0.0,95,0.00,,,0.00,Wunderground v.1.15,2013-01-25 00:05:00,
2013-01-24 18:10:00,60.4,59.0,30.25,North,32767,0.0,0.0,95,0.00,,,0.00,Wunderground v.1.15,2013-01-25 00:10:00,
2013-01-24 18:15:00,60.2,58.8,30.25,North,32767,0.0,0.0,95,0.00,,,0.00,Wunderground v.1.15,2013-01-25 00:15:00,
2013-01-24 18:20:00,60.2,58.8,30.25,North,32767,0.0,0.0,95,0.00,,,0.00,Wunderground v.1.15,2013-01-25 00:20:00,
2013-01-24 18:25:00,60.1,59.0,30.25,North,32767,0.0,0.0,96,0.00,,,0.00,Wunderground v.1.15,2013-01-25 00:25:00,
2013-01-24 18:30:00,60.0,58.9,30.25,North,32767,0.0,0.0,96,0.00,,,0.00,Wunderground v.1.15,2013-01-25 00:30:00,
2013-01-24 18:35:00,60.0,58.9,30.25,North,32767,0.0,0.0,96,0.00,,,0.00,Wunderground v.1.15,2013-01-25 00:35:00,
2013-01-24 18:40:00,59.9,58.8,30.25,North,32767,0.0,0.0,96,0.00,,,0.00,Wunderground v.1.15,2013-01-25 00:40:00,
2013-01-24 18:45:00,59.8,58.7,30.26,North,32767,0.0,0.0,96,0.00,,,0.00,Wunderground v.1.15,2013-01-25 00:45:00,
2013-01-24 18:50:00,59.8,58.7,30.26,North,32767,0.0,0.0,96,0.00,,,0.00,Wunderground v.1.15,2013-01-25 00:50:00,
2013-01-24 18:55:00,59.7,58.6,30.26,North,32767,0.0,0.0,96,0.00,,,0.00,Wunderground v.1.15,2013-01-25 00:55:00,
2013-01-24 19:05:00,59.6,58.5,30.26,North,32767,0.0,0.0,96,0.00,,,0.00,Wunderground v.1.15,2013-01-25 01:05:00,
2013-01-24 19:10:00,59.6,58.5,30.26,North,32767,0.0,0.0,96,0.00,,,0.00,Wunderground v.1.15,2013-01-25 01:10:00,
2013-01-24 19:15:00,59.5,58.4,30.26,North,32767,0.0,0.0,96,0.00,,,0.00,Wunderground v.1.15,2013-01-25 01:15:00,
2013-01-24 19:20:00,59.4,58.3,30.26,North,32767,0.0,0.0,96,0.00,,,0.00,Wunderground v.1.15,2013-01-25 01:20:00,
2013-01-24 19:25:00,59.3,58.2,30.26,North,32767,0.0,0.0,96,0.00,,,0.00,Wunderground v.1.15,2013-01-25 01:25:00,
2013-01-24 19:30:00,59.3,58.4,30.27,North,32767,0.0,0.0,97,0.00,,,0.00,Wunderground v.1.15,2013-01-25 01:30:00,
2013-01-24 19:35:00,59.4,58.5,30.26,North,32767,0.0,0.0,97,0.00,,,0.00,Wunderground v.1.15,2013-01-25 01:35:00,
2013-01-24 19:45:00,59.6,58.7,30.26,North,32767,0.0,0.0,97,0.00,,,0.00,Wunderground v.1.15,2013-01-25 01:45:00,
2013-01-24 19:50:00,59.8,58.9,30.26,North,32767,0.0,0.0,97,0.00,,,0.00,Wunderground v.1.15,2013-01-25 01:50:00,
2013-01-24 19:55:00,59.8,58.9,30.26,North,32767,0.0,0.0,97,0.00,,,0.00,Wunderground v.1.15,2013-01-25 01:55:00,
2013-01-24 20:00:00,59.9,59.0,30.26,North,32767,0.0,0.0,97,0.00,,,0.00,Wunderground v.1.15,2013-01-25 02:00:00,
2013-01-24 20:05:00,60.0,59.1,30.26,North,32767,0.0,0.0,97,0.00,,,0.00,Wunderground v.1.15,2013-01-25 02:05:00,
2013-01-24 20:10:00,60.0,58.9,30.26,North,32767,0.0,0.0,96,0.00,,,0.00,Wunderground v.1.15,2013-01-25 02:10:00,
2013-01-24 20:15:00,59.9,58.8,30.26,North,32767,0.0,0.0,96,0.00,,,0.00,Wunderground v.1.15,2013-01-25 02:15:00,
2013-01-24 20:20:00,59.7,58.6,30.26,North,32767,0.0,0.0,96,0.00,,,0.00,Wunderground v.1.15,2013-01-25 02:20:00,
2013-01-24 20:30:00,59.4,58.5,30.26,North,32767,0.0,0.0,97,0.00,,,0.00,Wunderground v.1.15,2013-01-25 02:30:00,
2013-01-24 20:35:00,59.1,58.2,30.26,North,32767,0.0,0.0,97,0.00,,,0.00,Wunderground v.1.15,2013-01-25 02:35:00,
2013-01-24 20:40:00,58.9,58.1,30.26,North,32767,0.0,0.0,97,0.00,,,0.00,Wunderground v.1.15,2013-01-25 02:40:00,
2013-01-24 20:45:00,58.6,57.8,30.26,North,32767,0.0,0.0,97,0.00,,,0.00,Wunderground v.1.15,2013-01-25 02:45:00,
2013-01-24 20:50:00,58.6,57.8,30.26,North,32767,0.0,0.0,97,0.00,,,0.00,Wunderground v.1.15,2013-01-25 02:50:00,
2013-01-24 20:55:00,58.6,57.8,30.26,North,32767,0.0,0.0,97,0.00,,,0.00,Wunderground v.1.15,2013-01-25 02:55:00,
2013-01-24 21:00:00,58.6,57.8,30.26,North,32767,0.0,0.0,97,0.00,,,0.00,Wunderground v.1.15,2013-01-25 03:00:00,
2013-01-24 21:05:00,58.5,57.7,30.25,North,32767,0.0,0.0,97,0.00,,,0.00,Wunderground v.1.15,2013-01-25 03:05:00,
2013-01-24 21:10:00,58.6,58.0,30.26,North,32767,0.0,0.0,98,0.00,,,0.00,Wunderground v.1.15,2013-01-25 03:10:00,
2013-01-24 21:15:00,58.6,57.8,30.26,North,32767,0.0,0.0,97,0.00,,,0.00,Wunderground v.1.15,2013-01-25 03:15:00,